DW5678 Weather Reports


time (UTC)temp
C
wind
direction
speed
KPH
gust
KPH
rain 1hr
cm
rain 24hr
cm
rain mn
cm
humidity
%
barometer
mb
20260504015811 11 335 8.0 20.9 0.00 0.00 0.00 45 1019.4
20260504014804 11 337 11.3 20.9 0.00 0.00 0.00 45 1019.6
20260504013803 11 355 11.3 20.9 0.00 0.00 0.00 45 1019.6
20260504011804 11 349 8.0 16.1 0.00 0.00 0.00 45 1019.7
20260504010804 11 336 9.7 20.9 0.00 0.00 0.00 44 1019.6
20260504005804 11 355 11.3 22.5 0.00 0.00 0.00 44 1019.6
20260504004804 11 354 11.3 19.3 0.00 0.00 0.00 45 1019.6
20260504003804 11 357 11.3 20.9 0.00 0.00 0.00 46 1019.7
20260504002804 11 346 9.7 22.5 0.00 0.00 0.00 46 1019.7
20260504001804 11 13 9.7 19.3 0.00 0.00 0.00 46 1019.6
20260504000804 11 9 8.0 16.1 0.00 0.00 0.00 47 1019.7
20260503235804 11 309 6.4 19.3 0.00 0.00 0.00 47 1019.7
20260503234803 11 344 8.0 25.7 0.00 0.00 0.00 47 1019.6
20260503233804 11 21 9.7 19.3 0.00 0.00 0.00 46 1019.5
20260503232804 11 340 6.4 16.1 0.00 0.00 0.00 46 1019.5
20260503230804 11 343 12.9 19.3 0.00 0.00 0.00 45 1019.5
20260503225804 11 346 14.5 22.5 0.00 0.00 0.00 45 1019.5
20260503224803 11 10 9.7 20.9 0.00 0.00 0.00 46 1019.4
20260503222804 11 0 9.7 20.9 0.00 0.00 0.00 46 1019.3
20260503220803 11 282 4.8 9.7 0.00 0.00 0.00 48 1019.4
20260503215804 11 355 9.7 22.5 0.00 0.00 0.00 46 1019.5
20260503214804 11 350 9.7 19.3 0.00 0.00 0.00 46 1019.4
20260503212804 11 357 11.3 20.9 0.00 0.00 0.00 46 1019.3
20260503211803 11 20 9.7 25.7 0.00 0.00 0.00 45 1019.3
20260503205804 11 38 4.8 14.5 0.00 0.00 0.00 45 1019.4
20260503204804 11 306 8.0 14.5 0.00 0.00 0.00 46 1019.3
20260503203803 11 30 9.7 20.9 0.00 0.00 0.00 45 1019.4
20260503202803 11 350 9.7 20.9 0.00 0.00 0.00 45 1019.5
20260503201804 12 0 9.7 20.9 0.00 0.00 0.00 44 1019.6
20260503195804 12 334 8.0 22.5 0.00 0.00 0.00 42 1019.5
20260503193804 12 45 4.8 19.3 0.00 0.00 0.00 40 1019.6
20260503192803 12 33 8.0 20.9 0.00 0.00 0.00 40 1019.6
20260503191804 12 3 8.0 20.9 0.00 0.00 0.00 42 1019.6
20260503190804 12 0 9.7 24.1 0.00 0.00 0.00 42 1019.6
20260503185804 12 28 9.7 22.5 0.00 0.00 0.00 41 1019.6
20260503184804 13 25 9.7 20.9 0.00 0.00 0.00 41 1019.4
20260503183803 13 8 9.7 24.1 0.00 0.00 0.00 40 1019.3
20260503182804 13 13 12.9 24.1 0.00 0.00 0.00 40 1019.2
20260503181803 13 21 12.9 22.5 0.00 0.00 0.00 40 1019.1
20260503175804 13 20 8.0 22.5 0.00 0.00 0.00 41 1019.0
20260503173804 13 113 14.5 25.7 0.00 0.00 0.00 40 1018.9
20260503171804 13 352 11.3 20.9 0.00 0.00 0.00 41 1018.6
20260503170804 13 348 9.7 20.9 0.00 0.00 0.00 41 1018.5
20260503110804 15 54 3.2 20.9 0.00 0.00 0.00 38 1018.7
20260503080804 12 13 3.2 9.7 0.00 0.00 0.00 55 1019.5
20260503072804 11 13 3.2 14.5 0.00 0.00 0.00 59 1019.7
20260503071804 11 13 3.2 9.7 0.00 0.00 0.00 60 1019.7
20260503052804 10 11 0.0 3.2 0.00 0.00 0.00 67 1019.6
20260503051803 9 11 0.0 1.6 0.00 0.00 0.00 68 1019.5
20260503050804 9 11 0.0 0.0 0.00 0.00 0.00 69 1019.5
20260503044803 8 11 0.0 3.2 0.00 0.00 0.00 69 1019.5
20260503042804 9 11 3.2 9.7 0.00 0.00 0.00 67 1019.5
20260503041803 8 11 0.0 8.0 0.00 0.00 0.00 69 1019.4
20260503040803 9 11 3.2 11.3 0.00 0.00 0.00 66 1019.3
20260503035803 8 11 1.6 9.7 0.00 0.00 0.00 65 1019.1
20260503033804 8 13 4.8 14.5 0.00 0.00 0.00 67 1018.8
20260503032804 8 14 3.2 8.0 0.00 0.00 0.00 67 1018.7
20260503031803 8 14 0.0 8.0 0.00 0.00 0.00 68 1018.8
20260503030803 8 14 4.8 11.3 0.00 0.00 0.00 69 1018.8
20260503025803 8 14 8.0 11.3 0.00 0.00 0.00 69 1018.9
20260503024803 8 14 9.7 19.3 0.00 0.00 0.00 68 1018.9
20260503023804 8 12 9.7 12.9 0.00 0.00 0.00 69 1018.8
20260503022804 9 12 1.6 4.8 0.00 0.00 0.00 68 1018.7
20260503020804 8 12 3.2 8.0 0.00 0.00 0.00 68 1018.6